User: anonymous   Login
Location: Grasslands National Park East Block
(49.0708°N, 106.5295°W)
Time: 05:03:26
(UTC-06:00)
Language:

Max Valier Satellite - Orbit

View from above orbital plane
View from above orbital plane
View from above satellite
View from above satellite

Ground track
Ground track

The orbit data is extracted from the following two-line orbital elements,

1 42778U 17036P   19261.69922004  .00000601  00000-0  29220-4 0  9992
2 42778  97.3456 317.3002 0010665 259.5845 100.4190 15.22133013124234
Epoch (UTC): 18 September 2019 16:46:52
Eccentricity: 0.0010665
inclination: 97.3456°
perigee height: 492 km
apogee height: 507 km
right ascension of ascending node: 317.3002°
argument of perigee: 259.5845°
revolutions per day: 15.22133013
mean anomaly at epoch: 100.4190°
orbit number at epoch: 12423

The dashed part of the orbit path shows where the satellite is in the earth's shadow,  

DLR